[[{"header":{"parameterUnit":"m.s-1","parameterCategory":1,"la1":30.2991,"la2":30.254,"lo1":-89.0895,"lo2":-89.0444,"dy":0.0017,"dx":0.0017,"nx":28,"ny":28,"refTime":"2023-09-03T21:00:00:Z","depth":0,"parameterNumber":2,"parameterNumberName":"U-component_of_WINDS"},"data":[0,0,0,0,0,0,0,0,0,0,0,0,0,0,0,0,0,0,0,0,0,0,0,0,0,0,0,0,0,0,0,0,0,0,0,0,0,0,0,0,0,0,0,0,0,0,0,0,0,0,0,0,0,0,0,0,0,0,-3.6331,-3.6331,0,-3.63,-3.63,-3.63,-3.6257,-3.6256,-3.6255,-3.6254,-3.6222,-3.6222,-3.6222,0,0,0,0,0,0,0,0,0,0,0,0,0,-3.6353,-3.6353,-3.6331,-3.6331,-3.633,-3.63,-3.63,-3.63,-3.6257,-3.6256,-3.6255,-3.6254,-3.6222,-3.6222,-3.6222,0,0,0,0,0,0,0,0,0,0,0,0,0,-3.6335,-3.6353,-3.6331,-3.6305,-3.6303,-3.63,-3.63,-3.6299,-3.6257,-3.6256,-3.6255,-3.6254,-3.6222,-3.6222,-3.6222,-3.6242,0,0,-3.6221,-3.6221,0,0,0,0,0,0,0,0,-3.6336,-3.6334,-3.631,-3.6307,-3.6304,-3.6281,-3.6296,-3.628,-3.6257,-3.6274,-3.6254,-3.6253,-3.6243,-3.6241,-3.6237,-3.624,-3.6239,-3.6221,-3.6221,-3.6221,-3.622,0,0,0,0,0,0,0,-3.6338,-3.6336,-3.6319,-3.6309,-3.6306,-3.6296,-3.6292,-3.6293,-3.6265,-3.6273,-3.6269,-3.6266,-3.6241,-3.6238,-3.6236,-3.6238,-3.6221,-3.6221,-3.622,-3.622,-3.6258,-3.6259,0,0,0,0,0,0,-3.6343,-3.6337,-3.632,-3.6318,-3.6318,-3.6296,-3.6292,-3.629,-3.6265,-3.626,-3.6267,-3.6265,-3.6238,-3.6236,-3.6235,-3.6257,-3.6221,-3.622,-3.622,-3.6257,-3.6258,-3.6259,0,0,0,0,0,0,-3.6343,-3.6342,-3.6321,-3.6327,-3.6323,-3.6297,-3.6295,-3.629,-3.6286,-3.6261,-3.6256,-3.6269,-3.6238,-3.6235,-3.6241,-3.6255,-3.622,-3.622,-3.6255,-3.6257,-3.6259,-3.6301,0,0,0,0,0,0,-3.6344,-3.6342,-3.6349,-3.6327,-3.6323,-3.6327,-3.6296,-3.629,-3.6286,-3.6282,-3.6261,-3.6256,-3.6237,-3.6241,-3.624,-3.6254,-3.622,-3.6254,-3.6256,-3.6258,-3.6298,-3.6304,-3.6309,0,0,0,0,0,-3.6345,-3.6362,-3.635,-3.6348,-3.6331,-3.6328,-3.6326,-3.6303,-3.6287,-3.6294,-3.6278,-3.6257,-3.6254,-3.6242,-3.6241,-3.6254,-3.6253,-3.6255,-3.6258,-3.6295,-3.6303,-3.6309,0,0,0,0,0,0,-3.6385,-3.6358,-3.6345,-3.6355,-3.6344,-3.6321,-3.6329,-3.6311,-3.6304,-3.6301,-3.6273,-3.6268,-3.6277,-3.6267,-3.6254,-3.6273,-3.625,-3.6253,-3.6279,-3.6286,-3.6291,-3.6293,-3.6219,0,0,0,0,0,-3.6396,-3.6396,-3.6372,-3.6383,-3.6379,-3.6355,-3.6353,-3.6336,-3.6324,-3.6319,-3.6304,-3.6293,-3.6289,-3.6287,-3.6283,-3.6297,-3.6292,-3.6306,-3.6312,-3.6316,-3.6318,-3.6325,-3.6331,-3.6268,-3.6268,-3.6268,0,0,-3.6417,-3.6402,-3.6403,-3.6391,-3.6381,-3.6381,-3.6351,-3.6353,-3.6353,-3.6319,-3.6323,-3.6312,-3.6298,-3.6308,-3.6312,-3.6299,-3.6335,-3.6319,-3.6323,-3.6322,-3.6328,-3.6334,-3.634,-3.627,-3.6269,-3.6269,0,0,-3.6454,-3.6443,-3.6452,-3.6443,-3.6428,-3.6413,-3.6415,-3.6395,-3.6386,-3.639,-3.6365,-3.6365,-3.636,-3.6351,-3.6346,-3.6383,-3.6363,-3.6383,-3.641,-3.6417,-3.6422,-3.6426,-3.6439,-3.6444,-3.6385,-3.6385,-3.6385,0,-3.6481,-3.6481,-3.6458,-3.6461,-3.6457,-3.6428,-3.6436,-3.6429,-3.6413,-3.6411,-3.6398,-3.6392,-3.638,-3.6388,-3.6397,-3.6394,-3.6396,-3.6383,-3.6423,-3.6427,-3.6431,-3.6442,-3.6447,-3.6387,-3.6387,-3.6387,-3.6387,0,-3.6515,-3.6516,-3.6524,-3.6511,-3.6508,-3.6513,-3.6492,-3.6491,-3.6476,-3.6462,-3.6467,-3.6453,-3.6445,-3.6446,-3.6431,-3.6452,-3.6445,-3.6428,-3.6404,-3.644,-3.645,-3.6454,-3.6391,-3.639,-3.6389,-3.6389,0,0,-3.6575,-3.655,-3.6554,-3.6547,-3.6531,-3.653,-3.6536,-3.6529,-3.6529,-3.652,-3.6524,-3.6521,-3.6506,-3.65,-3.6484,-3.6491,-3.6521,-3.6473,-3.6472,-3.6481,-3.6543,-3.6555,-3.6561,-3.6509,-3.651,-3.651,-3.6544,0,-3.6608,-3.6615,-3.6595,-3.6607,-3.6607,-3.6581,-3.6586,-3.6576,-3.6564,-3.6563,-3.655,-3.6548,-3.6528,-3.6525,-3.6531,-3.6516,-3.6533,-3.6514,-3.6511,-3.6511,-3.6513,-3.6566,-3.6578,-3.6611,-3.6548,-3.6549,-3.6549,0,-3.6647,-3.6641,-3.6653,-3.6636,-3.6636,-3.664,-3.6633,-3.6632,-3.6621,-3.6612,-3.6607,-3.6589,-3.6593,-3.6572,-3.6578,-3.6565,-3.6564,-3.6557,-3.6558,-3.6555,-3.6531,-3.6563,-3.662,-3.6625,-3.6556,-3.6555,-3.6555,0,-3.6688,-3.6683,-3.669,-3.6685,-3.6667,-3.667,-3.6663,-3.6651,-3.6649,-3.6643,-3.6641,-3.6636,-3.6632,-3.6629,-3.661,-3.6596,-3.6618,-3.6595,-3.661,-3.6611,-3.6614,-3.6613,-3.667,-3.6616,-3.6616,-3.6616,-3.6616,0,-3.6726,-3.6734,-3.6708,-3.6712,-3.6721,-3.6699,-3.6708,-3.6698,-3.6688,-3.669,-3.6668,-3.667,-3.6646,-3.6646,-3.6631,-3.6638,-3.6637,-3.663,-3.6625,-3.6631,-3.6631,-3.6628,-3.6624,-3.6617,-3.6617,-3.6616,-3.6616,0,-3.6772,-3.6755,-3.676,-3.6743,-3.6739,-3.6746,-3.6731,-3.6734,-3.6722,-3.6724,-3.6724,-3.6704,-3.6703,-3.6685,-3.6679,-3.667,-3.6682,-3.6674,-3.6685,-3.6682,-3.6698,-3.6696,-3.6752,-3.6758,-3.6702,-3.6702,-3.6703,0,-3.6796,-3.6802,-3.6785,-3.6785,-3.6779,-3.6779,-3.6777,-3.6757,-3.6755,-3.6744,-3.6749,-3.6746,-3.6742,-3.6742,-3.6727,-3.6723,-3.6714,-3.6735,-3.6713,-3.6719,-3.6713,-3.6712,-3.6713,-3.6738,-3.6739,-3.6739,-3.674,0,-3.6841,-3.6833,-3.683,-3.6825,-3.6824,-3.6819,-3.6813,-3.6814,-3.6792,-3.6792,-3.679,-3.6788,-3.6783,-3.678,-3.6774,-3.6767,-3.675,-3.6747,-3.675,-3.6754,-3.676,-3.6756,-3.6696,-3.6745,-3.6745,-3.6744,-3.6744,-3.6744,-3.6876,-3.688,-3.6869,-3.6868,-3.6861,-3.6857,-3.6859,-3.6848,-3.6846,-3.6841,-3.683,-3.683,-3.6821,-3.6811,-3.6805,-3.6805,-3.6795,-3.68,-3.68,-3.6801,-3.6804,-3.6762,-3.6804,-3.6804,-3.6804,-3.6804,-3.6804,0,-3.6918,-3.6911,-3.691,-3.6902,-3.6901,-3.6887,-3.688,-3.688,-3.6881,-3.6874,-3.6871,-3.687,-3.6868,-3.6855,-3.6851,-3.6854,-3.6846,-3.6854,-3.6852,-3.6851,-3.6814,-3.6811,-3.686,-3.686,-3.686,-3.686,-3.686,-3.686,-3.694,-3.6946,-3.6937,-3.6941,-3.6933,-3.6934,-3.6931,-3.6927,-3.6921,-3.6921,-3.6919,-3.6911,-3.6901,-3.6897,-3.6895,-3.6891,-3.689,-3.69,-3.6894,-3.6859,-3.6853,-3.6848,-3.6845,-3.6901,-3.6901,-3.693,-3.693,-3.6931]},{"header":{"parameterUnit":"m.s-1","parameterCategory":1,"la1":30.2991,"la2":30.254,"lo1":-89.0895,"lo2":-89.0444,"dy":0.0017,"dx":0.0017,"nx":28,"ny":28,"refTime":"2023-09-03T21:00:00:Z","depth":0,"parameterNumber":3,"parameterNumberName":"V-component_of_WINDS"},"data":[0,0,0,0,0,0,0,0,0,0,0,0,0,0,0,0,0,0,0,0,0,0,0,0,0,0,0,0,0,0,0,0,0,0,0,0,0,0,0,0,0,0,0,0,0,0,0,0,0,0,0,0,0,0,0,0,0,0,2.5551,2.5551,0,2.5555,2.5555,2.5555,2.5609,2.561,2.5612,2.5613,2.5612,2.561,2.5609,0,0,0,0,0,0,0,0,0,0,0,0,0,2.5586,2.5585,2.5551,2.5551,2.5551,2.5555,2.5555,2.5555,2.5609,2.561,2.5612,2.5614,2.5612,2.561,2.5609,0,0,0,0,0,0,0,0,0,0,0,0,0,2.5578,2.5585,2.5551,2.5579,2.5581,2.5555,2.5555,2.5555,2.5608,2.561,2.5612,2.5614,2.5612,2.5611,2.5609,2.5555,0,0,2.5603,2.5602,0,0,0,0,0,0,0,0,2.5579,2.5577,2.5574,2.5577,2.5579,2.5584,2.5567,2.5555,2.5608,2.5598,2.5613,2.5615,2.56,2.5599,2.5595,2.5555,2.5555,2.5602,2.5601,2.56,2.56,0,0,0,0,0,0,0,2.5579,2.5577,2.5553,2.5574,2.5577,2.5589,2.5591,2.5565,2.5587,2.5599,2.5603,2.5603,2.5602,2.5597,2.5596,2.5555,2.5602,2.5601,2.5599,2.5599,2.5471,2.5469,0,0,0,0,0,0,2.5577,2.5577,2.5552,2.5553,2.5584,2.5587,2.5588,2.558,2.5588,2.5591,2.5601,2.5605,2.56,2.5598,2.5596,2.5534,2.56,2.5599,2.5597,2.5474,2.5471,2.5469,0,0,0,0,0,0,2.5577,2.5574,2.5552,2.5566,2.5564,2.5584,2.5575,2.5579,2.5575,2.5589,2.5593,2.5592,2.5601,2.5599,2.5565,2.5535,2.5598,2.5596,2.5476,2.5473,2.547,2.5409,0,0,0,0,0,0,2.5578,2.5574,2.5554,2.5565,2.5563,2.5523,2.5573,2.5578,2.5572,2.5577,2.5582,2.5585,2.5603,2.5568,2.5563,2.5533,2.5594,2.5479,2.5475,2.5471,2.5414,2.5404,2.5396,0,0,0,0,0,2.5579,2.5536,2.5553,2.555,2.554,2.5521,2.5519,2.5542,2.5569,2.5549,2.5559,2.5585,2.5539,2.5564,2.5559,2.5528,2.5481,2.5476,2.5471,2.5418,2.5406,2.5396,0,0,0,0,0,0,2.5519,2.5538,2.5557,2.5517,2.5517,2.553,2.5505,2.5529,2.552,2.5525,2.5552,2.5553,2.5515,2.5518,2.5546,2.5477,2.5515,2.5508,2.5476,2.5465,2.5456,2.5455,2.5593,0,0,0,0,0,2.5501,2.5485,2.5502,2.5465,2.5464,2.5485,2.5477,2.5495,2.5496,2.5495,2.5503,2.5501,2.5487,2.5476,2.5463,2.5415,2.5417,2.5391,2.5382,2.5375,2.5369,2.5344,2.5332,2.5452,2.5452,2.5452,0,0,2.5463,2.5472,2.546,2.5453,2.5455,2.5437,2.5484,2.5463,2.545,2.5492,2.5461,2.5466,2.5466,2.5425,2.5408,2.5427,2.5336,2.5369,2.5362,2.536,2.5337,2.5326,2.5316,2.5449,2.545,2.545,0,0,2.5386,2.5391,2.5361,2.5363,2.5367,2.5381,2.5374,2.5384,2.5389,2.536,2.5391,2.5375,2.5349,2.5348,2.5344,2.5268,2.5291,2.5263,2.5215,2.519,2.5181,2.5172,2.5145,2.5134,2.5257,2.5257,2.5257,0,2.5338,2.5314,2.5342,2.5319,2.5315,2.5355,2.5323,2.5323,2.5322,2.5317,2.534,2.5309,2.5312,2.5271,2.5253,2.5249,2.524,2.5262,2.518,2.5172,2.5165,2.5138,2.5128,2.5253,2.5254,2.5254,2.5254,0,2.5255,2.5238,2.5212,2.5212,2.5205,2.5178,2.5201,2.519,2.5209,2.5221,2.519,2.5195,2.5184,2.5176,2.5193,2.5138,2.515,2.5176,2.5214,2.5149,2.5125,2.5115,2.5248,2.525,2.5251,2.5252,0,0,2.5138,2.5155,2.5145,2.5146,2.5154,2.514,2.5115,2.5107,2.5097,2.5095,2.5073,2.5052,2.5076,2.5071,2.5089,2.5067,2.5007,2.5096,2.5096,2.5078,2.4945,2.4925,2.4913,2.5023,2.5021,2.502,2.4945,0,2.5063,2.5022,2.5047,2.5002,2.4986,2.5024,2.5002,2.5004,2.5014,2.5001,2.5012,2.4996,2.503,2.5028,2.5008,2.5018,2.498,2.5024,2.5002,2.5001,2.5,2.4901,2.4879,2.4808,2.4936,2.4934,2.4933,0,2.4969,2.4965,2.4919,2.4931,2.4925,2.4905,2.49,2.4887,2.489,2.4899,2.4895,2.4918,2.4893,2.4933,2.4898,2.4927,2.492,2.4924,2.4922,2.4919,2.4962,2.4894,2.4786,2.4775,2.4919,2.492,2.4921,0,2.4887,2.4871,2.4841,2.484,2.4854,2.4839,2.4843,2.4848,2.4842,2.4837,2.4833,2.4824,2.4819,2.4811,2.4832,2.4858,2.4794,2.4835,2.48,2.4799,2.4783,2.4783,2.4671,2.478,2.478,2.478,2.4781,0,2.48,2.477,2.4805,2.4786,2.4754,2.4783,2.4749,2.4757,2.4762,2.4745,2.4777,2.476,2.4789,2.4774,2.479,2.4759,2.4756,2.4762,2.4766,2.4758,2.4757,2.4753,2.4758,2.4778,2.4778,2.4779,2.4779,0,2.4703,2.4725,2.4695,2.4711,2.4714,2.4689,2.4702,2.4685,2.4699,2.4677,2.4674,2.4694,2.4679,2.4699,2.4685,2.4696,2.4653,2.4665,2.4652,2.4655,2.4619,2.4621,2.4498,2.4483,2.4603,2.4602,2.4601,0,2.4645,2.4623,2.4637,2.4629,2.4633,2.4619,2.4613,2.4641,2.4633,2.4636,2.4618,2.4607,2.4598,2.4572,2.4585,2.4575,2.4586,2.4544,2.4584,2.4578,2.4584,2.4585,2.4583,2.4535,2.4533,2.4532,2.4531,0,2.454,2.4553,2.4544,2.4539,2.4532,2.4529,2.4529,2.452,2.4549,2.4539,2.4525,2.4519,2.4506,2.4493,2.4487,2.449,2.4515,2.4519,2.451,2.4501,2.4494,2.4497,2.4628,2.4521,2.4522,2.4523,2.4523,2.4524,2.446,2.4443,2.4451,2.444,2.4443,2.4442,2.4427,2.444,2.4429,2.4422,2.4439,2.4421,2.4425,2.4419,2.442,2.4405,2.4423,2.441,2.4407,2.4403,2.4397,2.4498,2.4404,2.4404,2.4405,2.4405,2.4405,0,2.4357,2.4364,2.4354,2.4353,2.4345,2.4372,2.4373,2.4363,2.4347,2.435,2.4342,2.4326,2.4314,2.4327,2.4317,2.4303,2.4314,2.4299,2.43,2.43,2.4382,2.439,2.4291,2.4291,2.4291,2.4291,2.4291,2.4291,2.4301,2.4273,2.4287,2.426,2.4268,2.4252,2.425,2.4249,2.4251,2.4232,2.4223,2.4233,2.4239,2.4231,2.4221,2.4225,2.4219,2.42,2.4208,2.4283,2.4295,2.4305,2.4313,2.4199,2.4199,2.4128,2.4127,2.4126]}]]